Language: 


Des rapports , des résumés tant et plus, au choix de chacun....


Données Historiques de Météogheer
Journalier Rapport pour Décembre 28, 2017 Unitée:  Impériale    Métrique   Les deux
Suivant Jour »
Journalier Hebdomadaire Mensuel Annuel Sur mesure
  Max: Min: Moyenne:
Température: 43.3 °F 30.2 °F 36 °F
Point de rosée: 39.2 °F 26.6 °F 33.3 °F
Humidité: 98% 71% 89%
Vent: 14.8mph 0mph 4.3mph
Rafales: 15.7mph - -
Vent- - West
Pression: 29.7 in 29.4 in -
Pluie: 0 in    
Historical Graphs
 
 
Données tabulaires pour Décembre 28, 2017
Heure Température Point de rosée Pression Vent Vent Rafales Humidité Pluie Taux (Horaire) Conditions
00:01 39.2 °F 35.6 °F 29.4 in WNW 5.4 mph 8.1 mph 85% 0 in
00:03 39.2 °F 35.6 °F 29.4 in NNW 4.7 mph 8.1 mph 85% 0 in
00:07 39 °F 35.6 °F 29.4 in West 6 mph 8.1 mph 86% 0 in
00:10 39 °F 35.6 °F 29.4 in NW 5.4 mph 10.7 mph 85% 0 in
00:15 38.8 °F 35.6 °F 29.4 in WNW 5.8 mph 10.7 mph 85% 0 in
00:20 38.7 °F 35.6 °F 29.4 in SSW 4.9 mph 8.7 mph 85% 0 in
00:21 38.7 °F 35.6 °F 29.4 in SSW 4.9 mph 8.7 mph 85% 0 in
00:23 38.7 °F 35.6 °F 29.4 in NNW 5.6 mph 8.7 mph 85% 0 in
00:28 38.7 °F 35.6 °F 29.4 in NW 9.8 mph 10.5 mph 85% 0 in
00:29 38.7 °F 35.6 °F 29.4 in NW 7.2 mph 10.5 mph 85% 0 in
00:34 38.5 °F 35.6 °F 29.4 in West 4 mph 12.3 mph 85% 0 in
00:36 38.5 °F 35.6 °F 29.4 in WNW 6.5 mph 12.3 mph 85% 0 in
00:41 38.3 °F 35.6 °F 29.4 in West 2.9 mph 12.3 mph 85% 0 in
00:42 38.3 °F 35.6 °F 29.4 in WNW 4.7 mph 9.8 mph 86% 0 in
00:44 38.3 °F 35.6 °F 29.4 in West 6.3 mph 8.5 mph 86% 0 in
00:49 37.9 °F 33.8 °F 29.4 in WNW 3.8 mph 8.1 mph 86% 0 in
00:52 37.9 °F 33.8 °F 29.4 in West 3.4 mph 8.1 mph 86% 0 in
00:57 37.6 °F 33.8 °F 29.4 in WNW 3.4 mph 8.1 mph 86% 0 in
01:03 37.4 °F 33.8 °F 29.4 in West 2.9 mph 8.1 mph 86% 0 in
01:08 37 °F 33.8 °F 29.4 in West 5.4 mph 8.1 mph 87% 0 in
01:10 37 °F 33.8 °F 29.4 in NNW 3.6 mph 7.4 mph 87% 0 in
01:12 36.9 °F 33.8 °F 29.4 in West 4.7 mph 7.4 mph 87% 0 in
01:16 36.9 °F 33.8 °F 29.4 in SW 5.8 mph 7.8 mph 87% 0 in
01:19 36.7 °F 33.8 °F 29.4 in West 8.7 mph 8.7 mph 87% 0 in
01:24 36.5 °F 33.8 °F 29.4 in WNW 6.5 mph 9.8 mph 88% 0 in
01:29 36.3 °F 33.8 °F 29.4 in West 4.3 mph 9.8 mph 88% 0 in
01:34 36.1 °F 33.8 °F 29.4 in West 8.5 mph 12.3 mph 89% 0 in
01:37 36.1 °F 33.8 °F 29.4 in West 6.3 mph 12.3 mph 89% 0 in
01:38 36.1 °F 33.8 °F 29.4 in WNW 3.4 mph 12.3 mph 89% 0 in
01:43 36.1 °F 33.8 °F 29.4 in West 4.9 mph 10.7 mph 89% 0 in
01:48 36.3 °F 33.8 °F 29.4 in West 7.8 mph 10.1 mph 90% 0 in
01:49 36.3 °F 33.8 °F 29.4 in West 4.9 mph 10.1 mph 90% 0 in
01:51 36.3 °F 33.8 °F 29.4 in West 7.4 mph 10.1 mph 90% 0 in
01:52 36.3 °F 33.8 °F 29.4 in West 8.5 mph 10.1 mph 90% 0 in
01:57 36.5 °F 35.6 °F 29.4 in West 5.8 mph 12.3 mph 91% 0 in
02:02 36.5 °F 35.6 °F 29.4 in West 7.6 mph 12.3 mph 91% 0 in
02:05 36.5 °F 35.6 °F 29.4 in West 7.6 mph 10.5 mph 91% 0 in
02:07 36.5 °F 35.6 °F 29.4 in West 6.5 mph 10.5 mph 91% 0 in
02:11 36.5 °F 35.6 °F 29.4 in WSW 3.6 mph 10.7 mph 91% 0 in
02:16 36.5 °F 35.6 °F 29.4 in WNW 11 mph 11 mph 91% 0 in
02:21 36.7 °F 35.6 °F 29.4 in West 8.7 mph 13.9 mph 91% 0 in
02:22 36.7 °F 35.6 °F 29.4 in West 8.7 mph 13.9 mph 91% 0 in
02:28 36.7 °F 35.6 °F 29.4 in West 8.5 mph 13.9 mph 91% 0 in
02:34 36.7 °F 35.6 °F 29.4 in WNW 2.9 mph 10.7 mph 91% 0 in
02:35 36.7 °F 35.6 °F 29.4 in West 7.2 mph 10.7 mph 91% 0 in
02:40 36.7 °F 35.6 °F 29.4 in West 4 mph 12.8 mph 91% 0 in
02:47 36.3 °F 33.8 °F 29.4 in West 3.6 mph 12.8 mph 90% 0 in
02:52 36.3 °F 33.8 °F 29.4 in West 8.5 mph 11 mph 90% 0 in
02:53 36.3 °F 33.8 °F 29.4 in WNW 6 mph 11 mph 90% 0 in
02:58 36.1 °F 33.8 °F 29.4 in West 6.5 mph 11 mph 89% 0 in
02:59 36.1 °F 33.8 °F 29.4 in West 3.4 mph 11 mph 90% 0 in
03:04 36.1 °F 33.8 °F 29.4 in West 7.8 mph 9.8 mph 90% 0 in
03:05 36.1 °F 33.8 °F 29.4 in NNW 7.4 mph 9.8 mph 90% 0 in
03:10 36.3 °F 33.8 °F 29.4 in West 6 mph 9.8 mph 90% 0 in
03:14 36.3 °F 33.8 °F 29.4 in NNW 10.3 mph 10.3 mph 90% 0 in
03:19 36.3 °F 33.8 °F 29.4 in WSW 3.4 mph 10.3 mph 90% 0 in
03:20 36.3 °F 33.8 °F 29.4 in West 6.5 mph 10.3 mph 90% 0 in
03:21 36.5 °F 33.8 °F 29.4 in West 5.4 mph 10.3 mph 90% 0 in
03:25 36.5 °F 33.8 °F 29.4 in West 4.3 mph 10.5 mph 90% 0 in
03:31 36.5 °F 33.8 °F 29.4 in WNW 8.9 mph 10.7 mph 90% 0 in
03:36 36.5 °F 33.8 °F 29.4 in WSW 3.4 mph 10.7 mph 90% 0 in
03:37 36.5 °F 33.8 °F 29.4 in West 4.9 mph 10.7 mph 90% 0 in
03:42 36.3 °F 33.8 °F 29.4 in West 8.1 mph 10.1 mph 90% 0 in
03:45 36.3 °F 33.8 °F 29.4 in WSW 8.1 mph 10.1 mph 90% 0 in
03:47 36.3 °F 33.8 °F 29.4 in West 8.1 mph 10.7 mph 90% 0 in
03:53 36.5 °F 35.6 °F 29.4 in South 6.5 mph 12.5 mph 91% 0 in
03:54 36.5 °F 35.6 °F 29.4 in West 10.1 mph 12.5 mph 91% 0 in
03:59 36.7 °F 35.6 °F 29.4 in WSW 9.4 mph 12.5 mph 91% 0 in
04:00 36.7 °F 35.6 °F 29.4 in West 3.8 mph 12.5 mph 91% 0 in
04:03 36.7 °F 35.6 °F 29.4 in West 2.5 mph 10.3 mph 91% 0 in
04:08 36.7 °F 35.6 °F 29.4 in WSW 7.6 mph 10.3 mph 91% 0 in
04:14 36.9 °F 35.6 °F 29.4 in WSW 14.5 mph 14.5 mph 91% 0 in
04:19 36.9 °F 35.6 °F 29.4 in West 8.1 mph 14.5 mph 91% 0 in
04:24 36.7 °F 33.8 °F 29.4 in WSW 6.3 mph 13.2 mph 90% 0 in
04:29 36.3 °F 33.8 °F 29.5 in WSW 5.6 mph 13.2 mph 90% 0 in
04:31 36.3 °F 33.8 °F 29.5 in WSW 7.8 mph 11.2 mph 90% 0 in
04:33 36.1 °F 33.8 °F 29.5 in West 7.4 mph 11.2 mph 90% 0 in
04:37 36.1 °F 33.8 °F 29.5 in WNW 6.9 mph 8.7 mph 90% 0 in
04:42 36.1 °F 33.8 °F 29.5 in West 7.8 mph 8.7 mph 90% 0 in
04:44 36.1 °F 33.8 °F 29.5 in WSW 5.6 mph 8.5 mph 91% 0 in
04:45 36.1 °F 33.8 °F 29.5 in WSW 10.3 mph 10.3 mph 91% 0 in
04:50 36.1 °F 33.8 °F 29.5 in West 7.8 mph 10.3 mph 91% 0 in
04:51 36 °F 33.8 °F 29.5 in West 8.5 mph 10.3 mph 91% 0 in
04:57 35.8 °F 33.8 °F 29.5 in West 5.4 mph 10.5 mph 90% 0 in
04:58 35.8 °F 33.8 °F 29.5 in WSW 5.4 mph 10.5 mph 90% 0 in
05:03 35.6 °F 33.8 °F 29.5 in WSW 5.6 mph 10.5 mph 90% 0 in
05:09 34.9 °F 32 °F 29.5 in WSW 7.2 mph 8.5 mph 90% 0 in
05:11 34.7 °F 32 °F 29.5 in WSW 4.7 mph 7.4 mph 90% 0 in
05:16 34.5 °F 32 °F 29.5 in WSW 6.5 mph 8.5 mph 90% 0 in
05:20 34.3 °F 32 °F 29.5 in WSW 5.8 mph 8.5 mph 90% 0 in
05:21 34.3 °F 32 °F 29.5 in West 8.7 mph 8.7 mph 90% 0 in
05:22 34.2 °F 32 °F 29.5 in WSW 7.6 mph 8.7 mph 90% 0 in
05:27 34.2 °F 32 °F 29.5 in West 8.5 mph 8.7 mph 91% 0 in
05:28 34 °F 32 °F 29.5 in West 4.7 mph 8.7 mph 91% 0 in
05:33 34 °F 32 °F 29.5 in WSW 4.7 mph 8.5 mph 91% 0 in
05:34 34 °F 32 °F 29.5 in WSW 7.2 mph 8.5 mph 91% 0 in
05:39 33.8 °F 32 °F 29.5 in West 4 mph 8.1 mph 92% 0 in
05:40 33.8 °F 32 °F 29.5 in West 7.2 mph 8.1 mph 92% 0 in
05:45 33.6 °F 32 °F 29.5 in West 3.6 mph 8.1 mph 93% 0 in
05:47 33.6 °F 32 °F 29.5 in West 7.8 mph 7.8 mph 93% 0 in
05:52 33.4 °F 32 °F 29.5 in SSW 6 mph 7.8 mph 93% 0 in
05:53 33.4 °F 32 °F 29.5 in West 6 mph 8.1 mph 93% 0 in
05:58 33.4 °F 32 °F 29.5 in WSW 6 mph 8.1 mph 94% 0 in
05:59 33.4 °F 32 °F 29.5 in West 5.8 mph 8.1 mph 94% 0 in
06:00 33.4 °F 32 °F 29.5 in West 6 mph 8.5 mph 94% 0 in
06:04 33.4 °F 32 °F 29.5 in WSW 6.3 mph 8.5 mph 94% 0 in
06:09 33.3 °F 32 °F 29.5 in WSW 4.9 mph 6.3 mph 94% 0 in
06:14 33.1 °F 32 °F 29.5 in West 4.7 mph 6.5 mph 94% 0 in
06:17 33.1 °F 32 °F 29.5 in West 2.9 mph 6.5 mph 94% 0 in
06:20 33.1 °F 32 °F 29.5 in Calm   6.5 mph 94% 0 in
06:21 33.1 °F 32 °F 29.5 in Calm   6.5 mph 94% 0 in
06:24 32.9 °F 32 °F 29.5 in West 5.6 mph 6 mph 95% 0 in
06:29 32.9 °F 32 °F 29.5 in WSW 3.6 mph 6 mph 95% 0 in
06:33 32.7 °F 32 °F 29.5 in Calm   6 mph 95% 0 in
06:38 32.5 °F 32 °F 29.5 in WSW 5.6 mph 5.6 mph 95% 0 in
06:43 32.5 °F 32 °F 29.5 in WSW 4.7 mph 5.6 mph 95% 0 in
06:49 32.5 °F 32 °F 29.5 in WSW 4.9 mph 6.5 mph 95% 0 in
06:54 32.5 °F 32 °F 29.5 in WSW 2.9 mph 6.5 mph 96% 0 in
06:58 32.5 °F 32 °F 29.5 in WSW 5.4 mph 6.5 mph 96% 0 in
07:03 32.5 °F 32 °F 29.5 in WSW 6 mph 6.5 mph 97% 0 in
07:06 32.7 °F 32 °F 29.5 in WSW 5.6 mph 7.6 mph 97% 0 in
07:11 32.7 °F 32 °F 29.5 in WSW 3.1 mph 7.6 mph 97% 0 in
07:13 32.7 °F 32 °F 29.5 in West 3.8 mph 7.6 mph 97% 0 in
07:17 32.7 °F 32 °F 29.5 in West 5.6 mph 6.5 mph 97% 0 in
07:19 32.7 °F 32 °F 29.5 in West 2.9 mph 6.5 mph 97% 0 in
07:24 32.5 °F 32 °F 29.5 in WSW 4.3 mph 6 mph 97% 0 in
07:27 32.4 °F 32 °F 29.5 in West 1.3 mph 6 mph 97% 0 in
07:32 32.4 °F 32 °F 29.5 in WNW 3.4 mph 6 mph 97% 0 in
07:36 32.2 °F 32 °F 29.5 in Calm   4.7 mph 97% 0 in
07:41 32.2 °F 32 °F 29.5 in West 1.3 mph 4.7 mph 98% 0 in
07:42 32.2 °F 32 °F 29.5 in WSW 0.9 mph 4.7 mph 98% 0 in
07:47 32.2 °F 32 °F 29.5 in Calm   2.7 mph 98% 0 in
07:51 32 °F 30.2 °F 29.5 in Calm   2.7 mph 98% 0 in
07:56 31.6 °F 30.2 °F 29.5 in WSW 3.4 mph 3.4 mph 97% 0 in
08:00 31.5 °F 30.2 °F 29.5 in Calm   3.4 mph 97% 0 in
08:02 31.5 °F 30.2 °F 29.5 in Calm   3.4 mph 97% 0 in
08:07 31.3 °F 30.2 °F 29.5 in Calm   3.1 mph 97% 0 in
08:12 31.1 °F 28.4 °F 29.5 in Calm   3.1 mph 97% 0 in
08:13 31.1 °F 28.4 °F 29.5 in Calm   3.1 mph 97% 0 in
08:18 31.1 °F 28.4 °F 29.5 in Calm   3.8 mph 97% 0 in
08:20 31.1 °F 30.2 °F 29.5 in WSW 4.3 mph 4.3 mph 98% 0 in
08:25 31.3 °F 30.2 °F 29.5 in WSW 3.8 mph 6.5 mph 98% 0 in
08:30 31.3 °F 30.2 °F 29.5 in WSW 2.9 mph 6.5 mph 98% 0 in
08:32 31.3 °F 30.2 °F 29.5 in West 3.8 mph 5.6 mph 98% 0 in
08:37 31.3 °F 30.2 °F 29.5 in WSW 4.7 mph 5.4 mph 98% 0 in
08:42 31.5 °F 30.2 °F 29.5 in Calm   5.4 mph 98% 0 in
08:43 31.5 °F 30.2 °F 29.5 in Calm   5.4 mph 98% 0 in
08:45 31.5 °F 30.2 °F 29.5 in WSW 4 mph 5.4 mph 98% 0 in
08:50 31.6 °F 30.2 °F 29.5 in West 4.5 mph 7.2 mph 98% 0 in
08:55 31.6 °F 30.2 °F 29.5 in Calm   7.2 mph 98% 0 in
08:57 31.6 °F 30.2 °F 29.5 in West 4 mph 7.2 mph 98% 0 in
08:58 31.8 °F 30.2 °F 29.5 in Calm   5.6 mph 98% 0 in
09:03 32 °F 30.2 °F 29.5 in WNW 1.6 mph 4.7 mph 98% 0 in
09:05 32 °F 30.2 °F 29.5 in West 3.4 mph 4.7 mph 98% 0 in
09:10 32.2 °F 32 °F 29.5 in West 4.7 mph 4.7 mph 98% 0 in
09:15 32.4 °F 32 °F 29.5 in WSW 1.1 mph 4.7 mph 98% 0 in
09:17 32.4 °F 32 °F 29.5 in Calm   4.7 mph 98% 0 in
09:22 32.5 °F 33.8 °F 29.5 in Calm   6.5 mph 98% 0 in
09:25 32.5 °F 33.8 °F 29.5 in West 6 mph 6.5 mph 98% 0 in
09:27 32.7 °F 33.8 °F 29.6 in West 3.6 mph 6.5 mph 98% 0 in
09:32 32.7 °F 33.8 °F 29.6 in West 3.8 mph 6.3 mph 98% 0 in
09:34 32.9 °F 33.8 °F 29.6 in WSW 3.6 mph 6.3 mph 98% 0 in
09:39 32.9 °F 33.8 °F 29.6 in West 4.7 mph 6 mph 98% 0 in
09:43 33.1 °F 33.8 °F 29.6 in West 3.6 mph 7.8 mph 98% 0 in
09:48 33.3 °F 33.8 °F 29.6 in West 4.3 mph 7.8 mph 98% 0 in
09:52 33.3 °F 33.8 °F 29.6 in WSW 4 mph 7.4 mph 98% 0 in
09:53 33.3 °F 33.8 °F 29.6 in SW 3.6 mph 7.4 mph 98% 0 in
09:58 33.4 °F 33.8 °F 29.6 in West 2.5 mph 7.4 mph 98% 0 in
09:59 33.4 °F 33.8 °F 29.6 in West 5.6 mph 7.4 mph 98% 0 in
10:04 33.6 °F 33.8 °F 29.6 in WSW 2.2 mph 7.2 mph 98% 0 in
10:05 33.6 °F 33.8 °F 29.6 in West 6.3 mph 7.2 mph 98% 0 in
10:10 33.8 °F 33.8 °F 29.6 in WSW 4.7 mph 8.7 mph 98% 0 in
10:11 33.8 °F 33.8 °F 29.6 in West 4 mph 8.7 mph 98% 0 in
10:15 34.2 °F 33.8 °F 29.6 in WSW 3.1 mph 8.7 mph 98% 0 in
10:20 34.5 °F 33.8 °F 29.6 in WSW 4.3 mph 8.1 mph 98% 0 in
10:21 34.7 °F 35.6 °F 29.6 in West 2.5 mph 8.1 mph 98% 0 in
10:26 35.1 °F 35.6 °F 29.6 in WSW 6.3 mph 8.5 mph 98% 0 in
10:28 35.1 °F 35.6 °F 29.6 in WSW 3.8 mph 8.5 mph 98% 0 in
10:32 35.4 °F 35.6 °F 29.6 in WNW 5.4 mph 8.5 mph 98% 0 in
10:35 35.6 °F 35.6 °F 29.6 in Calm   8.5 mph 98% 0 in
10:40 35.8 °F 35.6 °F 29.6 in West 2.7 mph 7.8 mph 98% 0 in
10:41 36 °F 35.6 °F 29.5 in West 5.6 mph 7.8 mph 98% 0 in
10:46 36.3 °F 37.4 °F 29.5 in West 4 mph 9.8 mph 98% 0 in
10:48 36.5 °F 37.4 °F 29.5 in West 4.9 mph 9.8 mph 98% 0 in
10:53 36.9 °F 37.4 °F 29.5 in Calm   8.5 mph 98% 0 in
10:55 36.9 °F 37.4 °F 29.5 in WSW 5.8 mph 8.5 mph 98% 0 in
11:00 37.4 °F 37.4 °F 29.6 in West 4.9 mph 9.4 mph 98% 0 in
11:05 37.4 °F 37.4 °F 29.6 in West 8.9 mph 9.4 mph 98% 0 in
11:10 37.9 °F 37.4 °F 29.5 in WSW 5.4 mph 8.9 mph 98% 0 in
11:14 38.1 °F 37.4 °F 29.5 in West 3.6 mph 8.9 mph 98% 0 in
11:16 38.1 °F 37.4 °F 29.5 in West 4 mph 8.5 mph 98% 0 in
11:21 38.5 °F 39.2 °F 29.5 in WSW 9.6 mph 11.2 mph 98% 0 in
11:24 38.5 °F 39.2 °F 29.5 in West 5.8 mph 11.2 mph 98% 0 in
11:26 38.5 °F 37.4 °F 29.5 in West 6 mph 11.2 mph 97% 0 in
11:31 38.8 °F 37.4 °F 29.5 in West 5.8 mph 10.7 mph 97% 0 in
11:33 39 °F 39.2 °F 29.5 in West 5.6 mph 10.7 mph 97% 0 in
11:37 39.4 °F 39.2 °F 29.5 in SW 7.4 mph 10.7 mph 96% 0 in
11:38 39.4 °F 39.2 °F 29.5 in SW 7.4 mph 10.7 mph 96% 0 in
11:43 39.4 °F 37.4 °F 29.6 in West 7.8 mph 10.3 mph 95% 0 in
11:48 39.6 °F 37.4 °F 29.6 in West 12.5 mph 12.8 mph 94% 0 in
11:49 39.6 °F 37.4 °F 29.6 in West 10.5 mph 12.8 mph 94% 0 in
11:51 39.7 °F 37.4 °F 29.6 in WNW 3.1 mph 12.8 mph 93% 0 in
11:56 39.9 °F 37.4 °F 29.6 in West 5.6 mph 12.8 mph 92% 0 in
11:58 39.9 °F 37.4 °F 29.6 in West 7.8 mph 12.8 mph 92% 0 in
11:59 39.9 °F 37.4 °F 29.6 in West 10.7 mph 11 mph 92% 0 in
12:04 40.3 °F 37.4 °F 29.6 in West 8.7 mph 13.2 mph 90% 0 in
12:10 40.5 °F 37.4 °F 29.6 in WSW 7.4 mph 13.2 mph 89% 0 in
12:15 40.5 °F 37.4 °F 29.6 in West 3.4 mph 12.8 mph 88% 0 in
12:17 40.6 °F 37.4 °F 29.6 in WSW 8.9 mph 12.8 mph 87% 0 in
12:25 40.8 °F 37.4 °F 29.6 in West 8.7 mph 11 mph 87% 0 in
12:26 41 °F 37.4 °F 29.6 in WSW 5.8 mph 11 mph 86% 0 in
12:31 41 °F 37.4 °F 29.6 in West 7.6 mph 13.2 mph 86% 0 in
12:36 41 °F 37.4 °F 29.6 in SW 14.8 mph 15.2 mph 84% 0 in
12:40 41.2 °F 37.4 °F 29.6 in West 8.1 mph 15.2 mph 83% 0 in
12:43 41.2 °F 37.4 °F 29.6 in WSW 8.7 mph 15.2 mph 83% 0 in
12:48 41.2 °F 35.6 °F 29.6 in WSW 6 mph 12.8 mph 81% 0 in
12:49 41.4 °F 37.4 °F 29.6 in West 5.6 mph 12.8 mph 82% 0 in
12:54 41.4 °F 35.6 °F 29.6 in WSW 10.1 mph 13.2 mph 81% 0 in
12:59 41.4 °F 35.6 °F 29.6 in West 13.2 mph 13.2 mph 80% 0 in
13:01 41.5 °F 35.6 °F 29.6 in West 10.5 mph 13.2 mph 79% 0 in
13:02 41.5 °F 35.6 °F 29.6 in West 8.7 mph 13.2 mph 79% 0 in
13:06 41.7 °F 35.6 °F 29.6 in WSW 12.8 mph 13.2 mph 79% 0 in
13:11 41.9 °F 37.4 °F 29.6 in WSW 7.8 mph 12.8 mph 79% 0 in
13:16 42.1 °F 37.4 °F 29.6 in WSW 13 mph 13 mph 79% 0 in
13:21 42.1 °F 37.4 °F 29.6 in WSW 10.5 mph 13 mph 79% 0 in
13:26 42.1 °F 35.6 °F 29.6 in West 8.5 mph 13 mph 76% 0 in
13:27 42.1 °F 35.6 °F 29.6 in WSW 8.5 mph 12.5 mph 76% 0 in
13:32 42.3 °F 35.6 °F 29.6 in West 5.4 mph 12.5 mph 77% 0 in
13:35 42.3 °F 35.6 °F 29.6 in WSW 10.3 mph 10.5 mph 77% 0 in
13:38 42.4 °F 37.4 °F 29.6 in WSW 8.5 mph 13.4 mph 77% 0 in
13:40 42.4 °F 35.6 °F 29.6 in WSW 8.9 mph 13.4 mph 76% 0 in
13:45 42.4 °F 35.6 °F 29.6 in West 8.1 mph 13.4 mph 76% 0 in
13:50 42.4 °F 35.6 °F 29.6 in WSW 7.2 mph 13.2 mph 76% 0 in
13:52 42.4 °F 35.6 °F 29.6 in West 8.5 mph 13.2 mph 76% 0 in
13:57 42.4 °F 35.6 °F 29.6 in WSW 8.1 mph 12.3 mph 75% 0 in
14:02 42.8 °F 35.6 °F 29.6 in West 6.5 mph 11 mph 75% 0 in
14:03 42.8 °F 35.6 °F 29.6 in West 8.5 mph 11 mph 75% 0 in
14:08 42.6 °F 35.6 °F 29.6 in West 7.4 mph 11 mph 75% 0 in
14:13 42.8 °F 35.6 °F 29.6 in West 6 mph 12.3 mph 75% 0 in
14:18 43 °F 35.6 °F 29.6 in West 6.5 mph 12.3 mph 75% 0 in
14:23 43.2 °F 37.4 °F 29.6 in WNW 12.1 mph 12.1 mph 75% 0 in
14:24 43 °F 35.6 °F 29.6 in West 12.5 mph 12.5 mph 74% 0 in
14:29 43.2 °F 35.6 °F 29.6 in WSW 6 mph 12.5 mph 73% 0 in
14:34 43.3 °F 35.6 °F 29.6 in WSW 7.8 mph 11 mph 74% 0 in
14:40 43.2 °F 35.6 °F 29.6 in West 8.7 mph 12.5 mph 72% 0 in
14:41 43.2 °F 35.6 °F 29.6 in West 7.8 mph 12.5 mph 72% 0 in
14:46 43.2 °F 35.6 °F 29.6 in SW 8.7 mph 12.5 mph 72% 0 in
14:49 43.2 °F 35.6 °F 29.6 in WNW 9.6 mph 15.7 mph 72% 0 in
14:52 43.2 °F 35.6 °F 29.6 in WSW 4.3 mph 15.7 mph 71% 0 in
14:57 43.2 °F 35.6 °F 29.6 in WSW 7.4 mph 15.7 mph 72% 0 in
14:58 43.2 °F 35.6 °F 29.6 in West 8.1 mph 12.1 mph 72% 0 in
15:03 43.3 °F 35.6 °F 29.6 in West 10.1 mph 13.2 mph 72% 0 in
15:05 43.3 °F 35.6 °F 29.6 in West 7.8 mph 13.2 mph 72% 0 in
15:07 43.3 °F 35.6 °F 29.6 in West 7.6 mph 13.2 mph 72% 0 in
15:11 43.2 °F 35.6 °F 29.6 in West 6.3 mph 12.5 mph 73% 0 in
15:13 43.2 °F 35.6 °F 29.6 in West 11 mph 12.5 mph 72% 0 in
15:16 43.2 °F 35.6 °F 29.6 in West 7.6 mph 11.4 mph 72% 0 in
15:21 43 °F 35.6 °F 29.6 in WNW 5.4 mph 13 mph 72% 0 in
15:26 43.2 °F 35.6 °F 29.6 in WSW 7.8 mph 13 mph 72% 0 in
15:28 43 °F 35.6 °F 29.6 in West 10.7 mph 13 mph 72% 0 in
15:33 43 °F 35.6 °F 29.6 in West 11 mph 13 mph 72% 0 in
15:35 42.8 °F 35.6 °F 29.6 in WSW 6.3 mph 13 mph 72% 0 in
15:36 42.8 °F 35.6 °F 29.6 in West 6.5 mph 13 mph 72% 0 in
15:41 42.8 °F 35.6 °F 29.6 in West 7.8 mph 12.3 mph 73% 0 in
15:42 42.8 °F 35.6 °F 29.6 in West 2.5 mph 12.3 mph 73% 0 in
15:46 42.8 °F 35.6 °F 29.6 in WSW 5.6 mph 10.1 mph 74% 0 in
15:50 42.6 °F 35.6 °F 29.6 in West 2.5 mph 7.8 mph 74% 0 in
15:55 42.4 °F 35.6 °F 29.6 in West 1.6 mph 6.3 mph 75% 0 in
15:56 42.3 °F 35.6 °F 29.6 in West 1.1 mph 6.3 mph 75% 0 in
16:01 42.1 °F 35.6 °F 29.6 in West 6.5 mph 10.7 mph 74% 0 in
16:02 41.9 °F 35.6 °F 29.6 in WSW 6 mph 10.7 mph 74% 0 in
16:04 41.7 °F 33.8 °F 29.6 in West 5.8 mph 10.7 mph 74% 0 in
16:08 41.5 °F 33.8 °F 29.6 in West 5.4 mph 8.5 mph 74% 0 in
16:11 41.2 °F 33.8 °F 29.6 in West 4.7 mph 6.9 mph 74% 0 in
16:13 41 °F 33.8 °F 29.6 in West 3.8 mph 6.9 mph 75% 0 in
16:18 40.6 °F 33.8 °F 29.6 in Calm   6.3 mph 75% 0 in
16:23 40.5 °F 33.8 °F 29.6 in WSW 5.6 mph 7.2 mph 75% 0 in
16:25 40.3 °F 33.8 °F 29.6 in WSW 6 mph 7.2 mph 76% 0 in
16:29 40.1 °F 33.8 °F 29.6 in West 4.3 mph 7.8 mph 76% 0 in
16:30 39.9 °F 33.8 °F 29.6 in West 4.3 mph 7.8 mph 76% 0 in
16:35 39.7 °F 33.8 °F 29.6 in WSW 6.3 mph 6.5 mph 76% 0 in
16:39 39.4 °F 32 °F 29.6 in West 5.6 mph 6.5 mph 76% 0 in
16:44 39 °F 33.8 °F 29.6 in Calm   6.5 mph 77% 0 in
16:50 38.5 °F 32 °F 29.6 in Calm   4.7 mph 77% 0 in
16:52 38.1 °F 32 °F 29.6 in Calm   3.8 mph 77% 0 in
16:58 37.6 °F 32 °F 29.6 in Calm   3.8 mph 77% 0 in
17:01 37.6 °F 32 °F 29.6 in West 3.1 mph 3.4 mph 78% 0 in
17:06 37.2 °F 32 °F 29.6 in Calm   3.8 mph 79% 0 in
17:08 37 °F 32 °F 29.6 in Calm   4.3 mph 79% 0 in
17:13 36.9 °F 32 °F 29.6 in WSW 3.8 mph 4.3 mph 79% 0 in
17:18 36.3 °F 32 °F 29.6 in Calm   3.8 mph 80% 0 in
17:19 36.3 °F 32 °F 29.6 in Calm   3.8 mph 80% 0 in
17:24 35.8 °F 30.2 °F 29.6 in Calm   3.4 mph 80% 0 in
17:28 35.6 °F 30.2 °F 29.6 in Calm   2.7 mph 80% 0 in
17:33 35.4 °F 30.2 °F 29.6 in West 4.9 mph 4.9 mph 81% 0 in
17:37 35.4 °F 30.2 °F 29.6 in WSW 4.9 mph 5.6 mph 82% 0 in
17:38 35.4 °F 30.2 °F 29.6 in WSW 5.8 mph 5.8 mph 83% 0 in
17:44 35.6 °F 32 °F 29.6 in West 5.4 mph 7.4 mph 84% 0 in
17:49 35.6 °F 32 °F 29.6 in WSW 5.4 mph 7.4 mph 85% 0 in
17:50 35.6 °F 32 °F 29.6 in West 4.3 mph 7.4 mph 85% 0 in
17:51 35.6 °F 32 °F 29.6 in West 0.9 mph 7.4 mph 85% 0 in
17:56 35.8 °F 32 °F 29.6 in Calm   6.3 mph 86% 0 in
17:58 35.8 °F 33.8 °F 29.6 in West 4.9 mph 6.3 mph 87% 0 in
18:01 35.8 °F 33.8 °F 29.6 in WSW 4.9 mph 6.3 mph 87% 0 in
18:06 35.6 °F 32 °F 29.6 in Calm   6 mph 86% 0 in
18:07 35.6 °F 32 °F 29.6 in Calm   5.8 mph 86% 0 in
18:12 35.4 °F 32 °F 29.7 in Calm   4.9 mph 87% 0 in
18:15 35.4 °F 32 °F 29.7 in Calm   1.6 mph 87% 0 in
18:19 35.1 °F 32 °F 29.7 in Calm   1.6 mph 86% 0 in
18:24 34.7 °F 32 °F 29.7 in Calm     86% 0 in
18:29 34.3 °F 30.2 °F 29.7 in Calm     86% 0 in
18:34 34 °F 30.2 °F 29.7 in Calm     86% 0 in
18:35 34 °F 30.2 °F 29.7 in Calm     86% 0 in
18:40 33.8 °F 30.2 °F 29.7 in Calm     86% 0 in
18:41 33.6 °F 30.2 °F 29.7 in SW 2.5 mph 2.5 mph 87% 0 in
18:46 33.4 °F 30.2 °F 29.7 in Calm   2.7 mph 87% 0 in
18:50 33.3 °F 30.2 °F 29.7 in Calm   2.7 mph 87% 0 in
18:55 33.1 °F 30.2 °F 29.7 in Calm     88% 0 in
18:56 33.1 °F 30.2 °F 29.7 in Calm     88% 0 in
19:01 33.3 °F 30.2 °F 29.7 in Calm   2.9 mph 89% 0 in
19:05 33.3 °F 30.2 °F 29.7 in Calm   2.9 mph 89% 0 in
19:07 33.3 °F 30.2 °F 29.7 in Calm   2.9 mph 89% 0 in
19:10 33.3 °F 30.2 °F 29.7 in Calm     89% 0 in
19:14 33.3 °F 30.2 °F 29.6 in Calm     89% 0 in
19:16 33.3 °F 30.2 °F 29.6 in Calm     89% 0 in
19:21 33.1 °F 30.2 °F 29.6 in Calm     90% 0 in
19:22 33.1 °F 30.2 °F 29.6 in Calm     90% 0 in
19:26 32.9 °F 30.2 °F 29.7 in Calm     90% 0 in
19:31 33.1 °F 30.2 °F 29.7 in Calm     90% 0 in
19:36 33.1 °F 32 °F 29.7 in Calm     91% 0 in
19:40 32.9 °F 32 °F 29.7 in Calm     91% 0 in
19:43 33.1 °F 32 °F 29.6 in Calm   1.3 mph 91% 0 in
19:48 33.4 °F 32 °F 29.6 in West 3.6 mph 5.6 mph 92% 0 in
19:49 33.6 °F 32 °F 29.6 in West 2.7 mph 5.6 mph 92% 0 in
19:54 33.6 °F 32 °F 29.6 in West 4.9 mph 5.6 mph 93% 0 in
19:58 33.6 °F 32 °F 29.7 in West 4.3 mph 5.6 mph 93% 0 in
20:03 33.6 °F 32 °F 29.7 in West 4.3 mph 5.6 mph 93% 0 in
20:07 33.6 °F 32 °F 29.7 in Calm   5.6 mph 93% 0 in
20:12 33.6 °F 32 °F 29.7 in West 2 mph 5.6 mph 93% 0 in
20:16 33.4 °F 32 °F 29.7 in Calm   5.4 mph 92% 0 in
20:21 33.3 °F 32 °F 29.7 in Calm   3.8 mph 92% 0 in
20:26 33.3 °F 32 °F 29.7 in West 2.5 mph 3.8 mph 92% 0 in
20:31 33.1 °F 32 °F 29.7 in Calm   4 mph 92% 0 in
20:33 32.9 °F 32 °F 29.7 in Calm   4.7 mph 92% 0 in
20:38 32.7 °F 30.2 °F 29.7 in Calm   4.7 mph 92% 0 in
20:40 32.7 °F 30.2 °F 29.7 in Calm   4.7 mph 92% 0 in
20:45 32.7 °F 30.2 °F 29.7 in Calm   3.4 mph 92% 0 in
20:46 32.7 °F 30.2 °F 29.7 in West 4 mph 4 mph 92% 0 in
20:52 32.9 °F 32 °F 29.7 in Calm   4.3 mph 93% 0 in
20:57 32.9 °F 32 °F 29.7 in West 3.4 mph 4.5 mph 93% 0 in
21:01 32.9 °F 32 °F 29.7 in WSW 4 mph 4.5 mph 93% 0 in
21:07 32.9 °F 32 °F 29.7 in West 3.8 mph 4.9 mph 93% 0 in
21:12 33.1 °F 32 °F 29.7 in Calm   4.7 mph 94% 0 in
21:15 33.1 °F 32 °F 29.7 in Calm   4.3 mph 94% 0 in
21:20 32.7 °F 32 °F 29.7 in Calm   3.4 mph 93% 0 in
21:25 32.7 °F 32 °F 29.7 in Calm     93% 0 in
21:32 32.4 °F 30.2 °F 29.7 in Calm     93% 0 in
21:37 32.2 °F 30.2 °F 29.7 in Calm     92% 0 in
21:40 32.2 °F 30.2 °F 29.7 in Calm     93% 0 in
21:42 32.2 °F 30.2 °F 29.7 in Calm     93% 0 in
21:47 32.4 °F 30.2 °F 29.7 in Calm     93% 0 in
21:50 32.5 °F 32 °F 29.7 in Calm     94% 0 in
21:55 32.5 °F 32 °F 29.7 in Calm     94% 0 in
22:00 32.5 °F 32 °F 29.7 in Calm     94% 0 in
22:05 32.7 °F 32 °F 29.7 in Calm     94% 0 in
22:06 32.7 °F 32 °F 29.7 in Calm     94% 0 in
22:07 32.7 °F 32 °F 29.7 in Calm     94% 0 in
22:12 32.5 °F 32 °F 29.7 in Calm     94% 0 in
22:13 32.5 °F 32 °F 29.7 in Calm     94% 0 in
22:18 32.4 °F 30.2 °F 29.7 in Calm     94% 0 in
22:22 32.4 °F 30.2 °F 29.7 in Calm     94% 0 in
22:26 32.5 °F 32 °F 29.7 in West 2.7 mph 2.7 mph 94% 0 in
22:30 32.5 °F 32 °F 29.7 in Calm   4 mph 94% 0 in
22:33 32.5 °F 32 °F 29.7 in West 1.6 mph 4 mph 94% 0 in
22:34 32.5 °F 32 °F 29.7 in Calm   4 mph 94% 0 in
22:36 32.5 °F 32 °F 29.7 in West 3.1 mph 4 mph 94% 0 in
22:41 32.7 °F 32 °F 29.7 in Calm   4 mph 95% 0 in
22:43 32.7 °F 32 °F 29.7 in Calm   4 mph 95% 0 in
22:48 32.7 °F 32 °F 29.7 in Calm   3.8 mph 95% 0 in
22:53 32.7 °F 32 °F 29.7 in Calm   3.6 mph 94% 0 in
22:58 32.5 °F 32 °F 29.7 in Calm   4 mph 94% 0 in
22:59 32.5 °F 32 °F 29.7 in West 1.1 mph 4 mph 94% 0 in
23:04 32.5 °F 32 °F 29.7 in West 2.2 mph 4 mph 94% 0 in
23:06 32.4 °F 30.2 °F 29.7 in Calm   4 mph 94% 0 in
23:11 32 °F 28.4 °F 29.7 in Calm   3.4 mph 93% 0 in
23:13 32 °F 28.4 °F 29.7 in Calm   3.4 mph 93% 0 in
23:17 31.5 °F 28.4 °F 29.7 in Calm     92% 0 in
23:22 30.9 °F 26.6 °F 29.7 in Calm     91% 0 in
23:24 30.7 °F 26.6 °F 29.7 in Calm     91% 0 in
23:29 30.4 °F 26.6 °F 29.7 in Calm   2.5 mph 91% 0 in
23:34 30.2 °F 26.6 °F 29.7 in Calm   2.5 mph 91% 0 in
23:39 30.2 °F 26.6 °F 29.7 in WSW 4 mph 4 mph 93% 0 in
23:40 30.4 °F 26.6 °F 29.7 in SW 2.9 mph 4 mph 92% 0 in
23:41 30.4 °F 26.6 °F 29.7 in Calm   4 mph 93% 0 in
23:46 30.6 °F 26.6 °F 29.7 in Calm   4.3 mph 94% 0 in
23:47 30.6 °F 26.6 °F 29.7 in Calm   4.3 mph 94% 0 in
23:52 30.7 °F 28.4 °F 29.7 in Calm   4.3 mph 95% 0 in
23:53 30.7 °F 28.4 °F 29.7 in Calm   4.3 mph 95% 0 in
23:58 30.6 °F 28.4 °F 29.7 in Calm     95% 0 in
Données Historique de Météo Turbie

Mise a jour : 20/05/2018 16:00:13
Généré par Cumulus 1.9.4 (1099)